WMT7KM LATI-EBCI

Flight info

Callsign WMT7KM
Flight time 2h 20m
Altitude 36000
Route INLOT DCT RETRA DCT GACMO DCT TEBLI DCT PODET DCT SIMBA DCT MAMOR DCT INBED DCT TEKTU DCT TESGA DCT UMUPU T880 ADMUM/N0381F240 T880 BATTY
Aircraft A321/M-SDE3FGHIRWY/LB1

Departure

Time 2026-05-07 11:43
Airport Tirana International Airport Mother Teresa (LATI)

Arrival

Time 2026-05-07 14:04
Airport Brussels South Charleroi Airport (EBCI)
Time Latitude Longitude Altitude Speed Heading
2026-05-07 10:58 41.42067 19.71492 148 ft 0 kts 265°
2026-05-07 10:59 41.42068 19.71497 149 ft 0 kts 264°
2026-05-07 11:28 41.42068 19.71498 136 ft 1 kts 264°
2026-05-07 11:28 41.42070 19.71527 139 ft 2 kts 264°
2026-05-07 11:28 41.42070 19.71551 132 ft 4 kts 315°
2026-05-07 11:28 41.42051 19.71561 132 ft 4 kts 354°
2026-05-07 11:29 41.42033 19.71564 132 ft 0 kts 354°
2026-05-07 11:32 41.42046 19.71562 132 ft 3 kts 354°
2026-05-07 11:32 41.42071 19.71559 132 ft 4 kts 354°
2026-05-07 11:32 41.42108 19.71554 132 ft 6 kts 354°
2026-05-07 11:33 41.42155 19.71547 132 ft 8 kts 354°
2026-05-07 11:33 41.42201 19.71541 132 ft 2 kts 354°
2026-05-07 11:33 41.42224 19.71538 132 ft 4 kts 354°
2026-05-07 11:33 41.42230 19.71537 132 ft 0 kts 354°
2026-05-07 11:37 41.42231 19.71537 132 ft 1 kts 354°
2026-05-07 11:38 41.42240 19.71536 132 ft 2 kts 354°
2026-05-07 11:38 41.42262 19.71533 132 ft 4 kts 354°
2026-05-07 11:38 41.42295 19.71529 132 ft 6 kts 354°
2026-05-07 11:38 41.42338 19.71523 132 ft 7 kts 354°
2026-05-07 11:39 41.42392 19.71516 132 ft 9 kts 356°
2026-05-07 11:39 41.42455 19.71510 132 ft 10 kts 355°
2026-05-07 11:39 41.42528 19.71501 132 ft 11 kts 354°
2026-05-07 11:39 41.42609 19.71489 132 ft 12 kts 354°
2026-05-07 11:40 41.42669 19.71548 132 ft 12 kts 74°
2026-05-07 11:40 41.42680 19.71667 129 ft 14 kts 85°
2026-05-07 11:40 41.42688 19.71795 126 ft 14 kts 84°
2026-05-07 11:40 41.42694 19.71871 126 ft 6 kts 91°
2026-05-07 11:41 41.42677 19.71890 123 ft 5 kts 157°
2026-05-07 11:41 41.42657 19.71897 125 ft 0 kts 172°
2026-05-07 11:42 41.42655 19.71897 125 ft 3 kts 172°
2026-05-07 11:43 41.42405 19.71937 121 ft 75 kts 174°
2026-05-07 11:43 41.41662 19.72037 124 ft 138 kts 174°
2026-05-07 11:43 41.40627 19.72179 319 ft 166 kts 173°
2026-05-07 11:43 41.39505 19.72333 1092 ft 163 kts 173°
2026-05-07 11:44 41.38396 19.72471 1724 ft 166 kts 174°
2026-05-07 11:44 41.37182 19.72621 2127 ft 188 kts 173°
2026-05-07 11:44 41.36279 19.72741 2350 ft 201 kts 174°
2026-05-07 11:44 41.34412 19.72993 2678 ft 225 kts 175°
2026-05-07 11:45 41.32842 19.73198 3100 ft 241 kts 175°
2026-05-07 11:45 41.31104 19.73428 3828 ft 250 kts 175°
2026-05-07 11:45 41.29943 19.73583 4386 ft 253 kts 175°
2026-05-07 11:45 41.28211 19.73810 5200 ft 258 kts 175°
2026-05-07 11:46 41.26396 19.74009 5989 ft 263 kts 182°
2026-05-07 11:46 41.24673 19.73351 6658 ft 266 kts 216°
2026-05-07 11:46 41.23533 19.71524 7343 ft 269 kts 249°
2026-05-07 11:46 41.23348 19.69137 8101 ft 274 kts 280°
2026-05-07 11:47 41.24197 19.66929 8881 ft 282 kts 312°
2026-05-07 11:47 41.25879 19.65602 9694 ft 293 kts 342°
2026-05-07 11:47 41.27908 19.65210 10318 ft 307 kts 354°
2026-05-07 11:47 41.30011 19.65084 10525 ft 329 kts 354°
2026-05-07 11:48 41.32323 19.64948 10866 ft 345 kts 354°
2026-05-07 11:48 41.34730 19.64802 11509 ft 350 kts 354°
2026-05-07 11:48 41.37143 19.64433 12208 ft 351 kts 347°
2026-05-07 11:48 41.39543 19.63783 12931 ft 354 kts 343°
2026-05-07 11:49 41.41940 19.62984 13644 ft 357 kts 342°
2026-05-07 11:49 41.44343 19.62133 14305 ft 360 kts 342°
2026-05-07 11:49 41.46738 19.61294 14924 ft 363 kts 342°
2026-05-07 11:49 41.49185 19.60470 15573 ft 366 kts 342°
2026-05-07 11:50 41.51650 19.59678 16239 ft 370 kts 343°
2026-05-07 11:50 41.54124 19.58907 16878 ft 373 kts 343°
2026-05-07 11:50 41.56653 19.58130 17537 ft 376 kts 343°
2026-05-07 11:50 41.59167 19.57364 18154 ft 379 kts 343°
2026-05-07 11:51 41.61737 19.56582 18714 ft 382 kts 343°
2026-05-07 11:51 41.64332 19.55789 19227 ft 385 kts 343°
2026-05-07 11:51 41.66941 19.54982 19760 ft 389 kts 343°
2026-05-07 11:51 41.69576 19.54160 20292 ft 392 kts 343°
2026-05-07 11:52 41.72241 19.53331 20827 ft 396 kts 343°
2026-05-07 11:52 41.74936 19.52496 21335 ft 399 kts 343°
2026-05-07 11:52 41.77663 19.51649 21862 ft 403 kts 343°
2026-05-07 11:52 41.80402 19.50794 22371 ft 407 kts 343°
2026-05-07 11:53 41.83175 19.49928 22862 ft 410 kts 343°
2026-05-07 11:53 41.85965 19.49058 23351 ft 414 kts 343°
2026-05-07 11:53 41.88743 19.48191 23809 ft 417 kts 342°
2026-05-07 11:53 41.91571 19.47308 24227 ft 420 kts 342°
2026-05-07 11:54 41.94429 19.46417 24620 ft 423 kts 343°
2026-05-07 11:54 41.97308 19.45514 25015 ft 426 kts 342°
2026-05-07 11:54 42.00128 19.44303 25388 ft 426 kts 336°
2026-05-07 11:54 42.02927 19.42973 25772 ft 428 kts 336°
2026-05-07 11:55 42.05745 19.41630 26167 ft 431 kts 336°
2026-05-07 11:55 42.08589 19.40276 26549 ft 434 kts 336°
2026-05-07 11:55 42.11434 19.38924 26909 ft 437 kts 336°
2026-05-07 11:55 42.14321 19.37552 27258 ft 440 kts 336°
2026-05-07 11:56 42.17209 19.36180 27615 ft 443 kts 336°
2026-05-07 11:56 42.20128 19.34791 27969 ft 445 kts 336°
2026-05-07 11:56 42.23006 19.33228 28316 ft 444 kts 329°
2026-05-07 11:56 42.25672 19.31146 28643 ft 444 kts 323°
2026-05-07 11:57 42.28299 19.28938 28991 ft 446 kts 323°
2026-05-07 11:57 42.30945 19.26713 29321 ft 449 kts 323°
2026-05-07 11:57 42.33598 19.24485 29648 ft 452 kts 323°
2026-05-07 11:57 42.36249 19.22265 29965 ft 455 kts 324°
2026-05-07 11:58 42.38965 19.19995 30270 ft 457 kts 324°
2026-05-07 11:58 42.41692 19.17712 30568 ft 460 kts 323°
2026-05-07 11:58 42.44424 19.15417 30850 ft 462 kts 323°
2026-05-07 11:58 42.47163 19.13109 31132 ft 465 kts 323°
2026-05-07 11:59 42.49870 19.10827 31538 ft 463 kts 324°
2026-05-07 11:59 42.52634 19.08492 31995 ft 462 kts 324°
2026-05-07 11:59 42.55317 19.06219 32409 ft 461 kts 324°
2026-05-07 11:59 42.58037 19.03914 32826 ft 460 kts 324°
2026-05-07 12:00 42.60746 19.01621 33301 ft 457 kts 324°
2026-05-07 12:00 42.63431 18.99352 33776 ft 455 kts 324°
2026-05-07 12:00 42.66117 18.97081 34211 ft 453 kts 324°
2026-05-07 12:00 42.68782 18.94823 34564 ft 452 kts 324°
2026-05-07 12:01 42.71441 18.92564 34921 ft 450 kts 324°
2026-05-07 12:01 42.74092 18.90302 35270 ft 449 kts 324°
2026-05-07 12:01 42.76727 18.88052 35609 ft 447 kts 324°
2026-05-07 12:01 42.79369 18.85798 35945 ft 446 kts 324°
2026-05-07 12:02 42.82000 18.83553 36087 ft 446 kts 323°
2026-05-07 12:02 42.87230 18.79091 36128 ft 442 kts 323°
2026-05-07 12:03 42.92434 18.74635 36126 ft 441 kts 323°
2026-05-07 12:03 42.97623 18.70166 36114 ft 441 kts 323°
2026-05-07 12:04 43.02817 18.65694 36130 ft 442 kts 323°
2026-05-07 12:04 43.08017 18.61225 36136 ft 442 kts 323°
2026-05-07 12:05 43.13222 18.56736 36138 ft 442 kts 323°
2026-05-07 12:05 43.18405 18.52225 36139 ft 442 kts 323°
2026-05-07 12:06 43.23583 18.47652 36131 ft 442 kts 323°
2026-05-07 12:06 43.28729 18.43103 36131 ft 443 kts 323°
2026-05-07 12:07 43.33904 18.38537 36125 ft 443 kts 323°
2026-05-07 12:07 43.39080 18.33967 36134 ft 442 kts 323°
2026-05-07 12:08 43.44259 18.29385 36137 ft 442 kts 323°
2026-05-07 12:08 43.49420 18.24798 36118 ft 442 kts 322°
2026-05-07 12:09 43.54583 18.20200 36117 ft 442 kts 322°
2026-05-07 12:09 43.59745 18.15604 36108 ft 442 kts 322°
2026-05-07 12:10 43.64911 18.10994 36105 ft 441 kts 322°
2026-05-07 12:10 43.70069 18.06371 36102 ft 441 kts 322°
2026-05-07 12:11 43.75179 18.01777 36103 ft 441 kts 322°
2026-05-07 12:11 43.80328 17.97151 36102 ft 441 kts 322°
2026-05-07 12:12 43.85464 17.92514 36103 ft 441 kts 322°
2026-05-07 12:12 43.90598 17.87873 36100 ft 440 kts 322°
2026-05-07 12:13 43.95734 17.83228 36104 ft 440 kts 322°
2026-05-07 12:13 44.00860 17.78584 36103 ft 441 kts 322°
2026-05-07 12:14 44.05994 17.73917 36101 ft 441 kts 321°
2026-05-07 12:14 44.11123 17.69245 36101 ft 441 kts 322°
2026-05-07 12:15 44.16256 17.64574 36097 ft 441 kts 321°
2026-05-07 12:15 44.21396 17.59871 36095 ft 442 kts 321°
2026-05-07 12:16 44.26529 17.55164 36083 ft 442 kts 321°
2026-05-07 12:16 44.31629 17.50475 36076 ft 442 kts 321°
2026-05-07 12:17 44.36762 17.45760 36073 ft 442 kts 321°
2026-05-07 12:17 44.41898 17.41033 36069 ft 442 kts 321°
2026-05-07 12:18 44.47021 17.36292 36073 ft 442 kts 321°
2026-05-07 12:18 44.52161 17.31523 36069 ft 443 kts 321°
2026-05-07 12:19 44.57303 17.26753 36074 ft 443 kts 321°
2026-05-07 12:19 44.62441 17.21977 36071 ft 444 kts 321°
2026-05-07 12:20 44.67591 17.17177 36074 ft 444 kts 321°
2026-05-07 12:20 44.72736 17.12375 36073 ft 444 kts 320°
2026-05-07 12:21 44.77886 17.07554 36075 ft 444 kts 320°
2026-05-07 12:21 44.83033 17.02719 36081 ft 445 kts 320°
2026-05-07 12:22 44.88186 16.97870 36079 ft 445 kts 320°
2026-05-07 12:22 44.93330 16.93034 36073 ft 445 kts 320°
2026-05-07 12:23 44.98446 16.88208 36069 ft 445 kts 320°
2026-05-07 12:23 45.03586 16.83338 36062 ft 445 kts 320°
2026-05-07 12:24 45.08717 16.78468 36065 ft 445 kts 320°
2026-05-07 12:24 45.13864 16.73574 36066 ft 446 kts 320°
2026-05-07 12:25 45.18998 16.68677 36067 ft 446 kts 320°
2026-05-07 12:25 45.24065 16.63625 36072 ft 444 kts 317°
2026-05-07 12:26 45.28988 16.58326 36069 ft 443 kts 316°
2026-05-07 12:26 45.33877 16.53009 36064 ft 443 kts 316°
2026-05-07 12:27 45.38808 16.47735 36065 ft 444 kts 316°
2026-05-07 12:27 45.43759 16.42471 36068 ft 444 kts 316°
2026-05-07 12:28 45.48705 16.37196 36064 ft 444 kts 316°
2026-05-07 12:28 45.53635 16.31904 36061 ft 444 kts 316°
2026-05-07 12:29 45.58561 16.26596 36052 ft 443 kts 316°
2026-05-07 12:29 45.63491 16.21282 36055 ft 443 kts 316°
2026-05-07 12:30 45.68406 16.15978 36057 ft 443 kts 316°
2026-05-07 12:30 45.73337 16.10647 36056 ft 443 kts 316°
2026-05-07 12:31 45.78217 16.05354 36056 ft 444 kts 316°
2026-05-07 12:31 45.83140 15.99999 36053 ft 444 kts 315°
2026-05-07 12:32 45.88042 15.94643 36048 ft 444 kts 315°
2026-05-07 12:32 45.92956 15.89278 36042 ft 444 kts 315°
2026-05-07 12:33 46.00342 15.81194 36025 ft 445 kts 315°
2026-05-07 12:33 46.05271 15.75779 36023 ft 446 kts 315°
2026-05-07 12:34 46.10198 15.70360 36025 ft 447 kts 315°
2026-05-07 12:34 46.15136 15.64906 36022 ft 447 kts 315°
2026-05-07 12:35 46.20027 15.59363 36008 ft 446 kts 314°
2026-05-07 12:35 46.24769 15.53619 36003 ft 445 kts 312°
2026-05-07 12:36 46.29410 15.47896 35999 ft 445 kts 313°
2026-05-07 12:36 46.34125 15.42145 35999 ft 446 kts 313°
2026-05-07 12:37 46.38886 15.36371 35998 ft 446 kts 313°
2026-05-07 12:37 46.42845 15.31562 35995 ft 446 kts 313°
2026-05-07 12:38 46.47596 15.25774 35992 ft 446 kts 313°
2026-05-07 12:38 46.52340 15.19976 35979 ft 446 kts 313°
2026-05-07 12:39 46.57084 15.14154 35970 ft 446 kts 313°
2026-05-07 12:39 46.61822 15.08331 35973 ft 447 kts 313°
2026-05-07 12:40 46.66571 15.02483 35970 ft 447 kts 313°
2026-05-07 12:40 46.71287 14.96663 35972 ft 447 kts 313°
2026-05-07 12:41 46.76028 14.90793 35975 ft 447 kts 313°
2026-05-07 12:41 46.80764 14.84924 35970 ft 447 kts 313°
2026-05-07 12:42 46.85511 14.79039 35969 ft 447 kts 313°
2026-05-07 12:42 46.90233 14.73161 35965 ft 447 kts 313°
2026-05-07 12:43 46.94967 14.67236 35962 ft 447 kts 313°
2026-05-07 12:43 46.99695 14.61306 35961 ft 448 kts 313°
2026-05-07 12:44 47.04422 14.55365 35958 ft 448 kts 313°
2026-05-07 12:44 47.09145 14.49413 35956 ft 448 kts 313°
2026-05-07 12:45 47.13849 14.43474 35964 ft 448 kts 313°
2026-05-07 12:45 47.18573 14.37506 35958 ft 448 kts 313°
2026-05-07 12:46 47.23298 14.31518 35969 ft 448 kts 313°
2026-05-07 12:46 47.28031 14.25512 35979 ft 449 kts 313°
2026-05-07 12:47 47.32738 14.19517 35984 ft 448 kts 313°
2026-05-07 12:47 47.37452 14.13497 36000 ft 449 kts 313°
2026-05-07 12:48 47.42179 14.07458 36002 ft 449 kts 313°
2026-05-07 12:48 47.46887 14.01416 36005 ft 449 kts 313°
2026-05-07 12:49 47.51602 13.95359 36009 ft 449 kts 313°
2026-05-07 12:49 47.56311 13.89279 36018 ft 449 kts 313°
2026-05-07 12:50 47.60999 13.83205 36018 ft 449 kts 313°
2026-05-07 12:50 47.65665 13.77156 36022 ft 449 kts 313°
2026-05-07 12:51 47.70365 13.71060 36027 ft 449 kts 313°
2026-05-07 12:51 47.75054 13.64951 36039 ft 449 kts 313°
2026-05-07 12:52 47.79746 13.58816 36039 ft 449 kts 313°
2026-05-07 12:52 47.84446 13.52665 36044 ft 449 kts 314°
2026-05-07 12:53 47.89135 13.46511 36048 ft 449 kts 314°
2026-05-07 12:53 47.93822 13.40368 36036 ft 449 kts 314°
2026-05-07 12:54 47.98509 13.34196 36042 ft 449 kts 314°
2026-05-07 12:54 48.03174 13.28007 36043 ft 448 kts 314°
2026-05-07 12:55 48.07831 13.21828 36041 ft 448 kts 314°
2026-05-07 12:55 48.12499 13.15633 36042 ft 448 kts 314°
2026-05-07 12:56 48.17152 13.09441 36045 ft 448 kts 314°
2026-05-07 12:56 48.21797 13.03225 36046 ft 447 kts 314°
2026-05-07 12:57 48.26532 12.97145 36045 ft 449 kts 317°
2026-05-07 12:57 48.31450 12.91380 36047 ft 449 kts 318°
2026-05-07 12:58 48.36402 12.85631 36044 ft 449 kts 318°
2026-05-07 12:58 48.41290 12.79806 36040 ft 448 kts 317°
2026-05-07 12:59 48.46150 12.73932 36039 ft 448 kts 317°
2026-05-07 12:59 48.51010 12.68049 36038 ft 447 kts 317°
2026-05-07 13:00 48.55866 12.62179 36036 ft 447 kts 317°
2026-05-07 13:00 48.60686 12.56336 36040 ft 447 kts 317°
2026-05-07 13:01 48.65528 12.50449 36037 ft 447 kts 317°
2026-05-07 13:01 48.70372 12.44549 36041 ft 447 kts 317°
2026-05-07 13:02 48.75215 12.38639 36041 ft 447 kts 317°
2026-05-07 13:02 48.80059 12.32709 36039 ft 448 kts 317°
2026-05-07 13:03 48.84910 12.26755 36045 ft 448 kts 318°
2026-05-07 13:03 48.89310 12.20189 36043 ft 441 kts 303°
2026-05-07 13:04 48.92543 12.12327 36045 ft 439 kts 298°
2026-05-07 13:04 48.95711 12.04385 36051 ft 439 kts 298°
2026-05-07 13:05 48.98889 11.96429 36054 ft 439 kts 298°
2026-05-07 13:05 49.02053 11.88475 36053 ft 440 kts 298°
2026-05-07 13:06 49.05211 11.80501 36056 ft 440 kts 298°
2026-05-07 13:06 49.08346 11.72554 36055 ft 440 kts 298°
2026-05-07 13:07 49.11509 11.64498 36055 ft 440 kts 298°
2026-05-07 13:07 49.14648 11.56485 36056 ft 440 kts 298°
2026-05-07 13:08 49.17789 11.48440 36058 ft 440 kts 298°
2026-05-07 13:08 49.20912 11.40431 36058 ft 440 kts 298°
2026-05-07 13:09 49.24038 11.32384 36046 ft 439 kts 298°
2026-05-07 13:09 49.27150 11.24345 36056 ft 439 kts 298°
2026-05-07 13:10 49.30259 11.16297 36054 ft 439 kts 298°
2026-05-07 13:10 49.33361 11.08249 36057 ft 438 kts 298°
2026-05-07 13:11 49.36411 11.00289 36057 ft 438 kts 298°
2026-05-07 13:11 49.39692 10.92426 36056 ft 440 kts 308°
2026-05-07 13:12 49.43635 10.85236 36054 ft 440 kts 308°
2026-05-07 13:12 49.47573 10.78019 36062 ft 440 kts 308°
2026-05-07 13:13 49.51504 10.70789 36063 ft 441 kts 308°
2026-05-07 13:13 49.55443 10.63539 36064 ft 441 kts 308°
2026-05-07 13:14 49.59367 10.56282 36063 ft 441 kts 308°
2026-05-07 13:14 49.63285 10.49015 36067 ft 441 kts 308°
2026-05-07 13:15 49.67198 10.41720 36065 ft 440 kts 308°
2026-05-07 13:15 49.71097 10.34423 36060 ft 440 kts 308°
2026-05-07 13:16 49.74995 10.27137 36054 ft 440 kts 308°
2026-05-07 13:16 49.78895 10.19831 36050 ft 440 kts 308°
2026-05-07 13:17 49.82791 10.12503 36047 ft 440 kts 308°
2026-05-07 13:17 49.86669 10.05177 36045 ft 440 kts 308°
2026-05-07 13:18 49.90524 9.97869 36042 ft 440 kts 308°
2026-05-07 13:18 49.94396 9.90530 36044 ft 440 kts 308°
2026-05-07 13:19 49.98271 9.83179 36044 ft 440 kts 308°
2026-05-07 13:19 50.02139 9.75795 36043 ft 440 kts 308°
2026-05-07 13:20 50.05987 9.68421 36045 ft 440 kts 308°
2026-05-07 13:20 50.09844 9.61035 36044 ft 440 kts 308°
2026-05-07 13:21 50.13699 9.53624 36044 ft 439 kts 308°
2026-05-07 13:21 50.17539 9.46207 36036 ft 440 kts 308°
2026-05-07 13:22 50.21362 9.38790 36038 ft 439 kts 308°
2026-05-07 13:22 50.25196 9.31340 36050 ft 440 kts 308°
2026-05-07 13:23 50.29034 9.23880 36050 ft 439 kts 308°
2026-05-07 13:23 50.32805 9.16438 36038 ft 439 kts 303°
2026-05-07 13:24 50.35442 9.07836 36045 ft 436 kts 286°
2026-05-07 13:24 50.37217 8.98823 36045 ft 436 kts 287°
2026-05-07 13:25 50.39021 8.89754 36046 ft 437 kts 287°
2026-05-07 13:25 50.40828 8.80653 36050 ft 437 kts 287°
2026-05-07 13:26 50.42613 8.71568 36053 ft 437 kts 286°
2026-05-07 13:26 50.44364 8.62431 36065 ft 436 kts 283°
2026-05-07 13:27 50.45368 8.53085 36062 ft 436 kts 278°
2026-05-07 13:27 50.46307 8.43688 36054 ft 436 kts 278°
2026-05-07 13:28 50.47250 8.34301 36065 ft 436 kts 278°
2026-05-07 13:28 50.48025 8.26495 36065 ft 435 kts 278°
2026-05-07 13:29 50.49090 8.15561 36047 ft 435 kts 278°
2026-05-07 13:29 50.49845 8.07691 36060 ft 435 kts 278°
2026-05-07 13:30 50.50740 7.98310 36062 ft 435 kts 278°
2026-05-07 13:30 50.51633 7.88914 36062 ft 434 kts 278°
2026-05-07 13:31 50.52512 7.79584 36067 ft 434 kts 278°
2026-05-07 13:31 50.53385 7.70191 36060 ft 434 kts 278°
2026-05-07 13:32 50.54250 7.60797 36062 ft 434 kts 278°
2026-05-07 13:32 50.55100 7.51493 36070 ft 433 kts 278°
2026-05-07 13:33 50.55869 7.42087 36058 ft 433 kts 272°
2026-05-07 13:33 50.55955 7.32625 36072 ft 433 kts 270°
2026-05-07 13:34 50.56039 7.18428 36071 ft 433 kts 270°
2026-05-07 13:35 50.55967 7.08966 36071 ft 433 kts 268°
2026-05-07 13:35 50.55718 6.99507 36064 ft 433 kts 267°
2026-05-07 13:36 50.55456 6.90066 36073 ft 432 kts 268°
2026-05-07 13:36 50.55225 6.80622 36072 ft 432 kts 268°
2026-05-07 13:37 50.55016 6.71174 36069 ft 432 kts 271°
2026-05-07 13:37 50.55822 6.61828 36068 ft 432 kts 281°
2026-05-07 13:38 50.56951 6.52610 36058 ft 432 kts 280°
2026-05-07 13:38 50.58069 6.43350 36064 ft 432 kts 280°
2026-05-07 13:39 50.59183 6.33991 36057 ft 432 kts 280°
2026-05-07 13:39 50.60270 6.24764 36063 ft 432 kts 280°
2026-05-07 13:40 50.61367 6.15482 36066 ft 432 kts 280°
2026-05-07 13:40 50.62456 6.06180 36059 ft 431 kts 279°
2026-05-07 13:41 50.63531 5.96904 35678 ft 429 kts 279°
2026-05-07 13:41 50.64063 5.92291 35165 ft 428 kts 279°
2026-05-07 13:41 50.64615 5.87698 34687 ft 426 kts 283°
2026-05-07 13:41 50.65502 5.83283 34335 ft 421 kts 292°
2026-05-07 13:42 50.66768 5.79130 33937 ft 417 kts 296°
2026-05-07 13:42 50.68076 5.75080 33464 ft 414 kts 296°
2026-05-07 13:42 50.69374 5.71055 32981 ft 410 kts 296°
2026-05-07 13:42 50.70663 5.67047 32488 ft 407 kts 296°
2026-05-07 13:43 50.71937 5.63075 32005 ft 404 kts 296°
2026-05-07 13:43 50.73197 5.59130 31503 ft 402 kts 296°
2026-05-07 13:43 50.74453 5.55201 31028 ft 399 kts 296°
2026-05-07 13:43 50.75697 5.51310 30574 ft 397 kts 296°
2026-05-07 13:44 50.76938 5.47420 30108 ft 394 kts 296°
2026-05-07 13:44 50.78162 5.43576 29572 ft 392 kts 296°
2026-05-07 13:44 50.79382 5.39737 29079 ft 389 kts 295°
2026-05-07 13:44 50.80598 5.35897 28270 ft 394 kts 295°
2026-05-07 13:45 50.81827 5.32003 27971 ft 402 kts 295°
2026-05-07 13:45 50.83070 5.28063 27512 ft 406 kts 295°
2026-05-07 13:45 50.84329 5.24073 27081 ft 405 kts 295°
2026-05-07 13:45 50.85580 5.20088 26647 ft 403 kts 295°
2026-05-07 13:46 50.86795 5.16121 26216 ft 400 kts 291°
2026-05-07 13:46 50.87618 5.11946 25791 ft 396 kts 280°
2026-05-07 13:46 50.87933 5.07637 25369 ft 393 kts 273°
2026-05-07 13:46 50.88118 5.03339 24924 ft 390 kts 273°
2026-05-07 13:47 50.88307 4.99054 24484 ft 388 kts 273°
2026-05-07 13:47 50.88497 4.94814 24035 ft 386 kts 273°
2026-05-07 13:47 50.88685 4.90606 23578 ft 380 kts 273°
2026-05-07 13:47 50.88867 4.86447 23093 ft 380 kts 273°
2026-05-07 13:48 50.89046 4.82279 22643 ft 378 kts 273°
2026-05-07 13:48 50.89224 4.78131 22179 ft 376 kts 273°
2026-05-07 13:48 50.89399 4.74031 21725 ft 373 kts 273°
2026-05-07 13:48 50.89571 4.69930 21254 ft 370 kts 273°
2026-05-07 13:49 50.89736 4.65882 20805 ft 368 kts 273°
2026-05-07 13:49 50.89898 4.61852 20353 ft 365 kts 272°
2026-05-07 13:49 50.89750 4.57862 19901 ft 362 kts 258°
2026-05-07 13:49 50.88935 4.54118 19447 ft 359 kts 242°
2026-05-07 13:50 50.87532 4.50897 18985 ft 358 kts 227°
2026-05-07 13:50 50.85670 4.48362 18524 ft 357 kts 218°
2026-05-07 13:50 50.83669 4.46003 18013 ft 355 kts 218°
2026-05-07 13:50 50.81685 4.43655 17559 ft 356 kts 218°
2026-05-07 13:51 50.79727 4.41332 17163 ft 349 kts 218°
2026-05-07 13:51 50.77810 4.39058 16646 ft 347 kts 218°
2026-05-07 13:51 50.75893 4.36790 16203 ft 343 kts 218°
2026-05-07 13:51 50.74003 4.34557 15748 ft 338 kts 218°
2026-05-07 13:52 50.72065 4.32480 15317 ft 335 kts 207°
2026-05-07 13:52 50.69864 4.31338 14882 ft 334 kts 189°
2026-05-07 13:52 50.67555 4.31342 14447 ft 332 kts 171°
2026-05-07 13:52 50.65365 4.32467 14029 ft 331 kts 154°
2026-05-07 13:53 50.63337 4.34172 13585 ft 329 kts 153°
2026-05-07 13:53 50.61353 4.35915 13140 ft 326 kts 146°
2026-05-07 13:53 50.59774 4.38445 12716 ft 324 kts 122°
2026-05-07 13:53 50.58975 4.41724 12300 ft 322 kts 98°
2026-05-07 13:54 50.59080 4.45210 11887 ft 320 kts 74°
2026-05-07 13:54 50.59927 4.48415 11475 ft 317 kts 64°
2026-05-07 13:54 50.60909 4.51471 11076 ft 308 kts 63°
2026-05-07 13:54 50.61894 4.54478 10671 ft 309 kts 63°
2026-05-07 13:55 50.62869 4.57438 10279 ft 299 kts 63°
2026-05-07 13:55 50.63823 4.60319 9880 ft 294 kts 63°
2026-05-07 13:55 50.64766 4.63163 9452 ft 292 kts 63°
2026-05-07 13:55 50.65701 4.65984 9025 ft 290 kts 63°
2026-05-07 13:56 50.66630 4.68792 8600 ft 287 kts 63°
2026-05-07 13:56 50.67548 4.71578 8187 ft 285 kts 63°
2026-05-07 13:56 50.68443 4.74303 7776 ft 282 kts 63°
2026-05-07 13:56 50.69308 4.77082 7098 ft 276 kts 71°
2026-05-07 13:57 50.69526 4.79989 6420 ft 270 kts 98°
2026-05-07 13:57 50.68847 4.82728 5684 ft 266 kts 127°
2026-05-07 13:57 50.67474 4.84551 4971 ft 262 kts 156°
2026-05-07 13:57 50.65714 4.85073 4389 ft 256 kts 187°
2026-05-07 13:58 50.63950 4.84435 4139 ft 265 kts 197°
2026-05-07 13:58 50.62236 4.83392 3890 ft 264 kts 206°
2026-05-07 13:58 50.60602 4.82076 3622 ft 263 kts 207°
2026-05-07 13:58 50.58986 4.80729 3414 ft 263 kts 207°
2026-05-07 13:59 50.57392 4.79389 3213 ft 262 kts 207°
2026-05-07 13:59 50.55858 4.77878 3038 ft 257 kts 221°
2026-05-07 13:59 50.54787 4.75772 3001 ft 243 kts 243°
2026-05-07 13:59 50.54102 4.73435 3020 ft 230 kts 246°
2026-05-07 14:00 50.53458 4.71185 3003 ft 220 kts 245°
2026-05-07 14:00 50.52840 4.69032 3026 ft 214 kts 246°
2026-05-07 14:00 50.52231 4.66914 3017 ft 213 kts 246°
2026-05-07 14:00 50.51616 4.64776 2995 ft 219 kts 246°
2026-05-07 14:01 50.51000 4.62635 2806 ft 208 kts 245°
2026-05-07 14:01 50.50419 4.60619 2532 ft 196 kts 246°
2026-05-07 14:01 50.49877 4.58740 2274 ft 180 kts 246°
2026-05-07 14:01 50.49384 4.57033 2053 ft 165 kts 246°
2026-05-07 14:02 50.48933 4.55469 1851 ft 152 kts 245°
2026-05-07 14:02 50.48505 4.53989 1637 ft 147 kts 246°
2026-05-07 14:02 50.48086 4.52541 1444 ft 146 kts 248°
2026-05-07 14:02 50.47669 4.51097 1273 ft 145 kts 245°
2026-05-07 14:03 50.47248 4.49660 1043 ft 144 kts 247°
2026-05-07 14:03 50.46843 4.48216 824 ft 145 kts 247°
2026-05-07 14:03 50.46424 4.46785 643 ft 144 kts 246°
2026-05-07 14:03 50.46046 4.45486 624 ft 110 kts 245°
2026-05-07 14:04 50.45803 4.44650 626 ft 60 kts 245°
2026-05-07 14:04 50.45674 4.44211 623 ft 26 kts 245°
2026-05-07 14:04 50.45632 4.44064 622 ft 9 kts 248°
2026-05-07 14:04 50.45658 4.43982 620 ft 10 kts 342°
2026-05-07 14:05 50.45716 4.44040 625 ft 11 kts 53°
2026-05-07 14:05 50.45769 4.44145 618 ft 13 kts 51°
2026-05-07 14:05 50.45830 4.44266 628 ft 15 kts 53°
2026-05-07 14:05 50.45898 4.44406 621 ft 17 kts 52°
2026-05-07 14:06 50.45961 4.44577 617 ft 19 kts 66°
2026-05-07 14:06 50.46019 4.44778 625 ft 21 kts 65°
2026-05-07 14:06 50.46082 4.44994 624 ft 23 kts 65°
2026-05-07 14:06 50.46149 4.45227 617 ft 24 kts 66°
2026-05-07 14:07 50.46220 4.45473 619 ft 25 kts 65°
2026-05-07 14:07 50.46275 4.45663 623 ft 19 kts 65°
2026-05-07 14:07 50.46332 4.45857 623 ft 20 kts 65°
2026-05-07 14:07 50.46394 4.46069 620 ft 22 kts 65°
2026-05-07 14:08 50.46461 4.46299 625 ft 24 kts 65°
2026-05-07 14:08 50.46531 4.46542 621 ft 25 kts 65°
2026-05-07 14:08 50.46587 4.46733 621 ft 10 kts 65°
2026-05-07 14:08 50.46633 4.46800 616 ft 9 kts 360°
2026-05-07 14:09 50.46697 4.46798 622 ft 10 kts 37°
2026-05-07 14:09 50.46736 4.46905 617 ft 12 kts 65°
2026-05-07 14:09 50.46765 4.47007 623 ft 10 kts 65°
2026-05-07 14:09 50.46792 4.47100 622 ft 8 kts 65°
2026-05-07 14:10 50.46810 4.47126 618 ft 4 kts 19°
2026-05-07 14:10 50.46840 4.47119 625 ft 5 kts 341°
2026-05-07 14:10 50.46860 4.47106 619 ft 1 kts 335°
2026-05-07 14:10 50.46870 4.47098 625 ft 0 kts 335°